Home > Time Zones > World Clock > Weather > Sweden > Lund > Past weeks

Flag Weather past 2 weeks in Lund, Sweden

Now
50 °F

Fog.


Feels Like: 48 °F
Forecast: 51 / 57 °F
Wind: 6 mph from Southeast

Location: Malmo / Sturup

Current Time: Oct 31, 2014 at 4:49:41 PM

Latest Report: Oct 31, 2014 at 4:20 PM


Visibility: 1 mi

Pressure: 30.18 "Hg

Humidity: 100%

Dew point: 50 °F

Location of LundLocation

Historic Weather in Lund — Graph

°F

Lund temperature yesterday

Maximum temperature yesterday: 50 °F (at 10:50 AM)
Minimum temperature yesterday: 34 °F (at 5:20 AM)
Average temperature yesterday: 40 °F

Past Weeks' High & Low Weather Summary

 TemperatureHumidityPressure
High59 °F (Oct 19, 5:50 AM)100% (Oct 16, 6:50 PM)30.27 "Hg (Oct 16, 6:50 PM)
Low34 °F (Oct 30, 5:20 AM)67% (Oct 20, 6:50 PM)29.42 "Hg (Oct 21, 8:20 PM)
Average51 °F91%29.98 "Hg
* Reported Oct 16 4:20 PM — Oct 31 3:50 PM, Lund, Weather by CustomWeather, © 2014

Note: Actual official high and low records may vary slightly from our data, if they occured in-between our weather recording intervals... More about our weather records

Advertising

Lund weather history for previous 24 hours

 ConditionsComfort  
Time TempWeatherWind HumidityBarometerVisibility
3:50 PM
Oct 31
50 °FDrizzle. Low clouds.6 mph100%30.18 "Hg1 mi
3:20 PM50 °FDrizzle. Fog.6 mph100%30.21 "Hg1 mi
2:50 PM50 °FFog.7 mph100%30.21 "Hg2 mi
2:20 PM50 °FDrizzle. Fog.8 mph94%30.21 "Hg2 mi
1:50 PM50 °FDrizzle. Fog.8 mph94%30.21 "Hg2 mi
1:20 PM50 °FLow clouds.8 mph88%30.21 "HgN/A
12:50 PM50 °FFog.8 mph88%30.21 "Hg5 mi
12:20 PM50 °FPartly sunny.10 mph88%30.24 "HgN/A
11:50 AM50 °FPartly sunny.8 mph88%30.24 "HgN/A
11:20 AM50 °FPartly sunny.8 mph88%30.24 "HgN/A
10:50 AM50 °FCloudy.7 mph88%30.24 "HgN/A
10:20 AM50 °FMostly cloudy.8 mph82%30.24 "HgN/A
9:50 AM50 °FMostly cloudy.7 mph88%30.24 "HgN/A
9:20 AM50 °FOvercast.6 mph82%30.24 "HgN/A
8:50 AM48 °FOvercast.7 mph87%30.24 "HgN/A
8:20 AM46 °FOvercast.5 mph87%30.24 "HgN/A
7:50 AM46 °FOvercast.7 mph87%30.24 "HgN/A
7:20 AM46 °FSunny.6 mph87%30.24 "Hg10 mi
6:50 AM45 °FClear.3 mph87%30.24 "Hg10 mi
6:20 AM45 °FClear.3 mph87%30.24 "Hg10 mi
5:50 AM45 °FClear.5 mph87%30.24 "Hg10 mi
5:20 AM45 °FClear.6 mph87%30.24 "Hg10 mi
4:50 AM45 °FClear.5 mph87%30.24 "Hg10 mi
4:20 AM43 °FClear.6 mph93%30.24 "Hg10 mi
3:50 AM41 °FClear.5 mph93%30.27 "Hg10 mi
3:20 AM39 °FClear.2 mph100%30.27 "Hg10 mi
2:50 AM39 °FClear.3 mph93%30.27 "Hg10 mi
2:20 AM37 °FFog.3 mph93%30.27 "Hg4 mi
1:50 AM36 °FFog.3 mph100%30.27 "Hg5 mi
1:20 AM34 °FFog.3 mph100%30.27 "Hg5 mi
12:50 AM34 °FFog.3 mph100%30.27 "Hg6 mi
12:20 AM34 °FClear.3 mph100%30.27 "Hg10 mi
11:50 PM
Oct 30
34 °FPassing clouds.3 mph100%30.27 "HgN/A
11:20 PM34 °FClear.5 mph100%30.27 "Hg10 mi
10:50 PM34 °FClear.5 mph100%30.27 "Hg10 mi
10:20 PM34 °FClear.2 mph100%30.27 "Hg10 mi
9:50 PM36 °FClear.3 mph100%30.27 "Hg10 mi
9:20 PM36 °FClear.2 mph93%30.27 "Hg10 mi
8:50 PM36 °FClear.3 mph100%30.27 "Hg10 mi
8:20 PM36 °FClear.No wind100%30.27 "Hg10 mi
7:50 PM37 °FClear.2 mph93%30.27 "Hg10 mi
7:20 PM37 °FClear.2 mph100%30.27 "Hg10 mi
6:50 PM37 °FClear.2 mph100%30.27 "Hg10 mi
6:20 PM39 °FClear.3 mph93%30.27 "Hg10 mi
5:50 PM39 °FClear.3 mph93%30.27 "Hg10 mi
5:20 PM43 °FClear.No wind87%30.27 "Hg10 mi
4:50 PM46 °FPassing clouds.3 mph76%30.27 "HgN/A
4:20 PM48 °FSunny.5 mph71%30.27 "Hg10 mi
Weather by CustomWeather, © 2014

See weather overviewHow to use our weather pages